Date String (YYYY-MM-DD hh:mm:ss) UTC,Instrument flags,absolute air pressure of the measurement (hPa),sample flow rate (lpm),inlet stack bypass flow (lpm),air temperature of the measurement (°C),ambient temperature measured by the external sensor (°C),aerosol sample conditioner tube jacket temperature (°C),OPC LED temperature (°C),internal box temperature (°C),relative humidity of the measurement (%),span deviation,mass concentration of particles derived from Lorenz-Mie calculation of OPC scattering (μg/m³),mass concentration of particles derived from Lorenz-Mie calculation of OPC scattering (μg/m³),mass concentration of particles derived from Lorenz-Mie calculation of OPC scattering (μg/m³)
DateTimeUTC,F1_M11,P_M11,Q1_M11,Q2_M11,T1_M11,T2_M11,T3_M11,T4_M11,T5_M11,U1_M11,ZSPAN_M11,X0_M11,X2_M11,X1_M11
2023-07-09 17:00:00,SystemResetWarning,0832.4,5.00,000.00,031.1,026.4,000.0,039.1,031.0,33.0,-000.8,0010.59,0006.57,0006.09
2023-07-09 17:01:00,SystemResetWarning,0832.4,4.99,000.00,031.1,026.8,000.0,039.1,031.1,34.8,-000.4,0010.53,0006.59,0006.12
2023-07-09 17:02:00,SystemResetWarning,0832.5,5.02,000.00,031.1,027.1,000.0,039.1,031.2,33.9,-001.3,0010.25,0006.66,0006.12
2023-07-09 17:03:00,SystemResetWarning,0832.5,4.98,000.00,031.2,027.4,000.0,039.1,031.3,33.9,-001.8,0010.28,0006.70,0006.12
2023-07-09 17:04:00,SystemResetWarning,0832.5,5.02,000.00,031.2,027.6,000.0,039.1,031.3,32.6,-001.5,0010.21,0006.71,0006.14
2023-07-09 17:05:00,SystemResetWarning,0832.5,5.00,000.00,031.2,027.9,000.0,039.2,031.4,32.3,-000.9,0010.09,0006.74,0006.15
2023-07-09 17:06:00,SystemResetWarning,0832.5,5.00,000.00,031.2,027.8,000.0,039.1,031.4,33.8,-000.1,0009.84,0006.73,0006.17
2023-07-09 17:07:00,SystemResetWarning,0832.5,4.99,000.00,031.2,026.4,000.0,039.0,031.3,33.2,-000.2,0009.88,0006.73,0006.17
2023-07-09 17:08:00,SystemResetWarning,0832.5,5.01,000.00,031.2,025.4,000.0,038.9,031.2,32.9,-001.7,0009.82,0006.72,0006.17
2023-07-09 17:09:00,SystemResetWarning,0832.4,5.01,000.00,031.0,025.3,000.0,038.9,030.9,32.7,-001.7,0009.76,0006.71,0006.15
2023-07-09 17:10:00,SystemResetWarning,0832.4,5.00,000.00,030.9,025.6,000.0,038.9,030.8,33.0,-002.1,0009.93,0006.73,0006.16
2023-07-09 17:11:00,SystemResetWarning,0832.4,4.99,000.00,030.8,026.0,000.0,038.9,030.9,32.7,-001.9,0010.00,0006.74,0006.17
2023-07-09 17:12:00,SystemResetWarning,0832.4,5.00,000.00,030.7,026.4,000.0,038.9,030.9,33.2,-002.5,0010.01,0006.71,0006.15
2023-07-09 17:13:00,SystemResetWarning,0832.4,5.00,000.00,030.7,026.8,000.0,038.9,031.0,32.7,-002.3,0009.91,0006.66,0006.14
2023-07-09 17:14:00,SystemResetWarning,0832.5,5.00,000.00,030.7,027.2,000.0,038.9,031.1,33.5,-001.8,0009.89,0006.61,0006.13
2023-07-09 17:15:00,SystemResetWarning,0832.5,5.00,000.00,030.6,027.4,000.0,038.9,031.1,34.4,-001.8,0009.85,0006.59,0006.13
2023-07-09 17:16:00,SystemResetWarning,0832.5,4.98,000.00,030.6,027.7,000.0,038.9,031.2,34.0,-001.8,0009.90,0006.59,0006.12
2023-07-09 17:17:00,SystemResetWarning,0832.5,5.00,000.00,030.6,027.9,000.0,038.9,031.3,35.1,-001.8,0010.48,0006.60,0006.11
2023-07-09 17:18:00,SystemResetWarning,0832.5,5.01,000.00,030.7,027.9,000.0,038.9,031.4,33.2,-001.6,0010.82,0006.62,0006.11
2023-07-09 17:19:00,SystemResetWarning,0832.5,4.99,000.00,030.8,026.8,000.0,038.8,031.4,32.8,-000.7,0011.15,0006.68,0006.13
2023-07-09 17:20:00,SystemResetWarning,0832.5,5.00,000.00,030.8,025.5,000.0,038.6,031.2,32.9,-000.9,0011.25,0006.70,0006.15
2023-07-09 17:21:00,SystemResetWarning,0832.5,5.00,000.00,030.8,025.3,000.0,038.6,031.0,32.9,-000.6,0011.14,0006.68,0006.15
2023-07-09 17:22:00,SystemResetWarning,0832.4,5.01,000.00,030.6,025.5,000.0,038.6,030.8,33.9,-001.0,0011.25,0006.66,0006.15
2023-07-09 17:23:00,SystemResetWarning,0832.4,5.01,000.00,030.6,025.9,000.0,038.7,030.8,32.8,-000.6,0011.81,0006.69,0006.15
2023-07-09 17:24:00,SystemResetWarning,0832.5,5.00,000.00,030.5,026.3,000.0,038.7,030.9,33.0,-001.2,0012.03,0006.69,0006.15
2023-07-09 17:25:00,SystemResetWarning,0832.5,5.00,000.00,030.5,026.7,000.0,038.7,031.0,33.7,-001.4,0012.18,0006.72,0006.15
2023-07-09 17:26:00,SystemResetWarning,0832.5,5.00,000.00,030.5,027.1,000.0,038.7,031.0,33.2,-001.5,0012.22,0006.73,0006.15
2023-07-09 17:27:00,SystemResetWarning,0832.5,5.00,000.00,030.5,027.4,000.0,038.7,031.1,33.2,-001.5,0012.42,0006.68,0006.14
2023-07-09 17:28:00,SystemResetWarning,0832.5,4.99,000.00,030.5,027.6,000.0,038.7,031.2,33.7,-001.4,0012.14,0006.68,0006.13
2023-07-09 17:29:00,SystemResetWarning,0832.5,4.99,000.00,030.5,027.8,000.0,038.7,031.2,33.9,-000.9,0011.80,0006.68,0006.12
2023-07-09 17:30:00,SystemResetWarning,0832.5,5.01,000.00,030.5,027.7,000.0,038.7,031.3,33.6,-001.0,0011.60,0006.63,0006.11
2023-07-09 17:31:00,SystemResetWarning,0832.4,4.98,000.00,030.5,026.4,000.0,038.6,031.1,34.8,-000.7,0011.67,0006.62,0006.09
2023-07-09 17:32:00,SystemResetWarning,0832.3,5.05,000.00,030.5,025.3,000.0,038.4,031.0,35.5,-001.4,0012.15,0006.63,0006.09
2023-07-09 17:33:00,SystemResetWarning,0832.3,4.95,000.00,030.6,025.2,000.0,038.4,030.9,35.4,-002.0,0011.94,0006.63,0006.08
2023-07-09 17:34:00,SystemResetWarning,0832.3,5.05,000.00,030.7,025.5,000.0,038.5,030.9,36.2,-002.0,0011.48,0006.61,0006.08
2023-07-09 17:35:00,SystemResetWarning,0832.4,4.98,000.00,030.9,026.0,000.0,038.5,031.0,34.4,-001.1,0011.34,0006.60,0006.08
2023-07-09 17:36:00,SystemResetWarning,0832.5,4.99,000.00,031.1,026.4,000.0,038.6,031.1,33.9,-002.0,0011.13,0006.56,0006.08
2023-07-09 17:37:00,SystemResetWarning,0832.5,5.01,000.00,031.3,026.8,000.0,038.6,031.2,34.4,-001.9,0011.34,0006.52,0006.06
2023-07-09 17:38:00,SystemResetWarning,0832.5,4.99,000.00,031.3,027.1,000.0,038.7,031.2,34.9,-001.9,0011.26,0006.54,0006.08
2023-07-09 17:39:00,SystemResetWarning,0832.5,5.02,000.00,031.4,027.4,000.0,038.8,031.3,33.9,-002.2,0011.15,0006.57,0006.11
2023-07-09 17:40:00,SystemResetWarning,0832.5,4.99,000.00,031.5,027.7,000.0,038.9,031.4,33.4,-002.6,0011.40,0006.60,0006.13
2023-07-09 17:41:00,SystemResetWarning,0832.5,5.00,000.00,031.5,027.9,000.0,039.0,031.4,34.3,-001.0,0011.69,0006.63,0006.14
2023-07-09 17:42:00,SystemResetWarning,0832.5,5.01,000.00,031.6,027.5,000.0,039.0,031.5,33.9,0000.0,0011.57,0006.63,0006.15
2023-07-09 17:43:00,SystemResetWarning,0832.6,4.99,000.00,031.6,026.0,000.0,038.9,031.3,33.6,0000.0,0011.05,0006.63,0006.16
2023-07-09 17:44:00,SystemResetWarning,0832.6,5.01,000.00,031.5,025.2,000.0,038.9,031.1,32.8,0000.0,0011.14,0006.64,0006.18
2023-07-09 17:45:00,SystemResetWarning,0832.5,5.00,000.00,031.4,025.3,000.0,038.9,030.9,34.8,0000.0,0011.49,0006.69,0006.20
2023-07-09 17:46:00,SystemResetWarning,0832.5,5.00,000.00,031.3,025.7,000.0,039.0,030.9,34.3,-000.8,0011.47,0006.70,0006.22
2023-07-09 17:47:00,SystemResetWarning,0832.5,5.00,000.00,031.3,026.1,000.0,039.0,031.0,34.1,-000.9,0012.13,0006.74,0006.25
2023-07-09 17:48:00,SystemResetWarning,0832.5,5.00,000.00,031.2,026.5,000.0,039.1,031.0,34.2,0000.0,0012.30,0006.77,0006.28
2023-07-09 17:49:00,SystemResetWarning,0832.5,5.01,000.00,031.2,026.9,000.0,039.1,031.1,34.0,0000.0,0012.30,0006.81,0006.29
2023-07-09 17:50:00,SystemResetWarning,0832.5,5.00,000.00,031.2,027.2,000.0,039.1,031.2,33.6,0000.0,0012.41,0006.83,0006.27
2023-07-09 17:51:00,SystemResetWarning,0832.5,5.00,000.00,031.1,027.5,000.0,039.2,031.3,33.1,0000.0,0012.30,0006.81,0006.26
2023-07-09 17:52:00,SystemResetWarning,0832.5,4.99,000.00,031.1,027.7,000.0,039.2,031.3,33.4,0000.0,0011.73,0006.80,0006.27
2023-07-09 17:53:00,SystemResetWarning,0832.5,5.00,000.00,031.1,027.9,000.0,039.2,031.4,33.9,0000.0,0011.76,0006.80,0006.28
2023-07-09 17:54:00,SystemResetWarning,0832.5,4.99,000.00,031.1,027.1,000.0,039.1,031.4,33.4,-001.0,0011.82,0006.85,0006.30
2023-07-09 17:55:00,SystemResetWarning,0832.5,5.00,000.00,031.1,025.7,000.0,038.9,031.2,33.7,-001.5,0011.72,0006.84,0006.30
2023-07-09 17:56:00,SystemResetWarning,0832.4,5.01,000.00,031.0,025.1,000.0,038.8,031.0,33.9,-001.2,0011.98,0006.85,0006.33
2023-07-09 17:57:00,SystemResetWarning,0832.3,4.99,000.00,030.8,025.3,000.0,038.9,030.8,35.4,-000.4,0012.31,0006.91,0006.36
2023-07-09 17:58:00,SystemResetWarning,0832.3,5.01,000.00,030.9,025.7,000.0,038.9,030.9,35.3,-000.7,0012.08,0006.98,0006.38
2023-07-09 17:59:00,SystemResetWarning,0832.3,5.00,000.00,031.0,026.2,000.0,038.9,031.0,34.7,-000.8,0011.75,0007.06,0006.41
